Time,TemperatureF,DewpointF,PressureIn,WindDirection,WindDirectionDegrees,WindSpeedMPH,WindSpeedGustMPH,Humidity,HourlyPrecipIn,Conditions,Clouds,dailyrainin,SolarRadiationWatts/m^2,SoftwareType,DateUTC
2013-02-06 00:01:00,29.0,25.0,29.99,NNW,345,4.0,11.0,84,0.00,,,0.00,0,weatherlink.com 1.10,2013-02-06 05:01:00,
2013-02-06 00:16:00,29.0,25.0,30.00,WNW,296,5.0,10.0,83,0.00,,,0.00,0,weatherlink.com 1.10,2013-02-06 05:16:00,
2013-02-06 00:31:00,28.9,24.0,30.01,WNW,298,6.0,10.0,83,0.00,,,0.00,0,weatherlink.com 1.10,2013-02-06 05:31:00,
2013-02-06 00:46:00,28.8,24.0,30.02,NW,305,5.0,6.0,83,0.00,,,0.00,0,weatherlink.com 1.10,2013-02-06 05:46:00,
2013-02-06 01:01:00,28.7,24.0,30.02,NW,304,2.0,7.0,83,0.00,,,0.00,0,weatherlink.com 1.10,2013-02-06 06:01:00,
2013-02-06 01:16:00,28.6,24.0,30.03,WNW,296,3.0,5.0,83,0.00,,,0.00,0,weatherlink.com 1.10,2013-02-06 06:16:00,
2013-02-06 01:31:00,28.5,24.0,30.03,West,272,2.0,6.0,83,0.00,,,0.00,0,weatherlink.com 1.10,2013-02-06 06:31:00,
2013-02-06 01:46:00,28.4,24.0,30.04,West,277,2.0,5.0,83,0.00,,,0.00,0,weatherlink.com 1.10,2013-02-06 06:46:00,
2013-02-06 02:01:00,28.5,24.0,30.05,WNW,288,0.0,8.0,83,0.00,,,0.00,0,weatherlink.com 1.10,2013-02-06 07:01:00,
2013-02-06 02:16:00,28.5,24.0,30.05,WNW,295,3.0,6.0,83,0.00,,,0.00,0,weatherlink.com 1.10,2013-02-06 07:16:00,
2013-02-06 02:31:00,28.4,24.0,30.06,WNW,300,3.0,6.0,83,0.00,,,0.00,0,weatherlink.com 1.10,2013-02-06 07:31:00,
2013-02-06 02:46:00,28.4,24.0,30.06,West,272,2.0,5.0,83,0.00,,,0.00,0,weatherlink.com 1.10,2013-02-06 07:46:00,
2013-02-06 03:01:00,28.3,24.0,30.07,WNW,289,2.0,6.0,82,0.00,,,0.00,0,weatherlink.com 1.10,2013-02-06 08:01:00,
2013-02-06 03:16:00,28.4,24.0,30.07,NW,308,0.0,6.0,82,0.00,,,0.00,0,weatherlink.com 1.10,2013-02-06 08:16:00,
2013-02-06 03:31:00,28.4,24.0,30.07,NW,314,2.0,4.0,82,0.00,,,0.00,0,weatherlink.com 1.10,2013-02-06 08:31:00,
2013-02-06 03:46:00,28.4,24.0,30.08,NW,322,1.0,5.0,82,0.00,,,0.00,0,weatherlink.com 1.10,2013-02-06 08:46:00,
2013-02-06 04:01:00,28.5,23.0,30.08,NW,326,1.0,6.0,81,0.00,,,0.00,0,weatherlink.com 1.10,2013-02-06 09:01:00,
2013-02-06 04:16:00,28.4,23.0,30.08,NNE,13,4.0,6.0,80,0.00,,,0.00,0,weatherlink.com 1.10,2013-02-06 09:16:00,
2013-02-06 04:31:00,28.3,23.0,30.09,NNE,27,2.0,4.0,80,0.00,,,0.00,0,weatherlink.com 1.10,2013-02-06 09:31:00,
2013-02-06 04:46:00,28.3,23.0,30.09,NNE,27,2.0,3.0,80,0.00,,,0.00,0,weatherlink.com 1.10,2013-02-06 09:46:00,
2013-02-06 05:01:00,28.2,23.0,30.10,NNE,27,0.0,3.0,80,0.00,,,0.00,0,weatherlink.com 1.10,2013-02-06 10:01:00,
2013-02-06 05:16:00,28.1,23.0,30.11,NNE,27,0.0,3.0,80,0.00,,,0.00,0,weatherlink.com 1.10,2013-02-06 10:16:00,
2013-02-06 05:31:00,28.0,23.0,30.12,NNE,27,2.0,4.0,80,0.00,,,0.00,0,weatherlink.com 1.10,2013-02-06 10:31:00,
2013-02-06 05:46:00,27.9,23.0,30.13,NNE,27,0.0,2.0,80,0.00,,,0.00,0,weatherlink.com 1.10,2013-02-06 10:46:00,
2013-02-06 06:02:00,27.8,22.0,30.14,NNE,27,0.0,2.0,80,0.00,,,0.00,0,weatherlink.com 1.10,2013-02-06 11:02:00,
2013-02-06 06:17:00,27.7,22.0,30.14,NNE,27,2.0,3.0,80,0.00,,,0.00,0,weatherlink.com 1.10,2013-02-06 11:17:00,
2013-02-06 06:32:00,27.6,22.0,30.15,NNE,27,0.0,2.0,80,0.00,,,0.00,0,weatherlink.com 1.10,2013-02-06 11:32:00,
2013-02-06 06:47:00,27.6,22.0,30.16,NNE,27,0.0,2.0,80,0.00,,,0.00,0,weatherlink.com 1.10,2013-02-06 11:47:00,
2013-02-06 07:02:00,27.5,22.0,30.16,NNE,27,0.0,3.0,78,0.00,,,0.00,0,weatherlink.com 1.10,2013-02-06 12:02:00,
2013-02-06 07:17:00,27.4,21.0,30.17,NNE,27,0.0,3.0,78,0.00,,,0.00,0,weatherlink.com 1.10,2013-02-06 12:17:00,
2013-02-06 07:32:00,27.2,21.0,30.18,NNE,27,1.0,3.0,78,0.00,,,0.00,0,weatherlink.com 1.10,2013-02-06 12:32:00,
2013-02-06 07:47:00,27.0,20.0,30.17,NNE,27,0.0,2.0,76,0.00,,,0.00,0,weatherlink.com 1.10,2013-02-06 12:47:00,
2013-02-06 08:02:00,26.6,21.0,30.17,NNE,27,0.0,0.0,78,0.00,,,0.00,11,weatherlink.com 1.10,2013-02-06 13:02:00,
2013-02-06 08:17:00,26.2,21.0,30.17,NNE,27,0.0,0.0,81,0.00,,,0.00,25,weatherlink.com 1.10,2013-02-06 13:17:00,
2013-02-06 08:32:00,26.3,21.0,30.18,NNE,27,0.0,0.0,81,0.00,,,0.00,49,weatherlink.com 1.10,2013-02-06 13:32:00,
2013-02-06 08:47:00,28.2,23.0,30.18,NNE,27,0.0,0.0,80,0.00,,,0.00,88,weatherlink.com 1.10,2013-02-06 13:47:00,
2013-02-06 09:02:00,28.3,22.0,30.19,NNE,27,0.0,0.0,78,0.00,,,0.00,130,weatherlink.com 1.10,2013-02-06 14:02:00,
2013-02-06 09:17:00,28.7,23.0,30.19,NNE,27,0.0,1.0,79,0.00,,,0.00,190,weatherlink.com 1.10,2013-02-06 14:17:00,
2013-02-06 09:32:00,31.1,23.0,30.19,NNE,27,0.0,1.0,72,0.00,,,0.00,244,weatherlink.com 1.10,2013-02-06 14:32:00,
2013-02-06 09:47:00,32.5,21.0,30.19,NNE,27,0.0,0.0,64,0.00,,,0.00,292,weatherlink.com 1.10,2013-02-06 14:47:00,
2013-02-06 10:03:00,32.7,21.0,30.19,NNE,27,2.0,3.0,63,0.00,,,0.00,322,weatherlink.com 1.10,2013-02-06 15:03:00,
2013-02-06 10:18:00,31.8,20.0,30.20,ENE,74,1.0,3.0,63,0.00,,,0.00,371,weatherlink.com 1.10,2013-02-06 15:18:00,
2013-02-06 10:32:00,31.8,21.0,30.20,ENE,75,2.0,3.0,64,0.00,,,0.00,408,weatherlink.com 1.10,2013-02-06 15:32:00,
2013-02-06 10:48:00,31.1,21.0,30.21,SSE,164,0.0,7.0,65,0.01,,,0.01,450,weatherlink.com 1.10,2013-02-06 15:48:00,
2013-02-06 11:03:00,31.2,21.0,30.22,SSE,166,2.0,5.0,65,0.01,,,0.01,468,weatherlink.com 1.10,2013-02-06 16:03:00,
2013-02-06 11:18:00,30.6,21.0,30.21,SE,136,4.0,7.0,67,0.01,,,0.01,506,weatherlink.com 1.10,2013-02-06 16:18:00,
2013-02-06 11:33:00,30.5,21.0,30.21,SSE,147,4.0,8.0,67,0.01,,,0.01,529,weatherlink.com 1.10,2013-02-06 16:33:00,
2013-02-06 11:48:00,30.5,21.0,30.21,South,175,3.0,10.0,68,0.00,,,0.01,550,weatherlink.com 1.10,2013-02-06 16:48:00,
2013-02-06 12:03:00,30.9,23.0,30.22,SE,131,0.0,7.0,71,0.00,,,0.01,568,weatherlink.com 1.10,2013-02-06 17:03:00,
2013-02-06 12:18:00,31.4,23.0,30.21,SE,135,3.0,7.0,70,0.00,,,0.01,582,weatherlink.com 1.10,2013-02-06 17:18:00,
2013-02-06 12:33:00,31.4,23.0,30.21,SE,143,7.0,9.0,71,0.01,,,0.02,598,weatherlink.com 1.10,2013-02-06 17:33:00,
2013-02-06 12:48:00,31.6,23.0,30.20,SE,125,2.0,8.0,70,0.01,,,0.02,601,weatherlink.com 1.10,2013-02-06 17:48:00,
2013-02-06 13:03:00,32.1,23.0,30.20,East,97,0.0,8.0,70,0.01,,,0.02,599,weatherlink.com 1.10,2013-02-06 18:03:00,
2013-02-06 13:18:00,32.3,23.0,30.20,ESE,121,4.0,9.0,69,0.01,,,0.02,606,weatherlink.com 1.10,2013-02-06 18:18:00,
2013-02-06 13:33:00,32.7,23.0,30.19,SSE,160,2.0,7.0,67,0.00,,,0.02,605,weatherlink.com 1.10,2013-02-06 18:33:00,
2013-02-06 13:48:00,32.9,23.0,30.18,South,179,5.0,10.0,67,0.00,,,0.02,592,weatherlink.com 1.10,2013-02-06 18:48:00,
2013-02-06 14:03:00,32.9,23.0,30.19,SSE,150,6.0,8.0,67,0.00,,,0.02,580,weatherlink.com 1.10,2013-02-06 19:03:00,
2013-02-06 14:18:00,33.1,23.0,30.19,SSW,201,0.0,9.0,67,0.00,,,0.02,566,weatherlink.com 1.10,2013-02-06 19:18:00,
2013-02-06 14:33:00,33.7,23.0,30.19,SW,219,2.0,7.0,66,0.00,,,0.02,541,weatherlink.com 1.10,2013-02-06 19:33:00,
2013-02-06 14:48:00,33.7,23.0,30.18,SSW,210,5.0,9.0,65,0.01,,,0.03,520,weatherlink.com 1.10,2013-02-06 19:48:00,
2013-02-06 15:03:00,33.9,24.0,30.18,SSE,167,3.0,12.0,66,0.01,,,0.03,490,weatherlink.com 1.10,2013-02-06 20:03:00,
2013-02-06 15:18:00,34.1,23.0,30.19,WSW,238,5.0,11.0,65,0.01,,,0.03,462,weatherlink.com 1.10,2013-02-06 20:18:00,
2013-02-06 15:33:00,34.4,24.0,30.18,SW,223,3.0,6.0,65,0.01,,,0.03,425,weatherlink.com 1.10,2013-02-06 20:33:00,
2013-02-06 15:48:00,34.4,24.0,30.18,South,191,5.0,10.0,65,0.00,,,0.03,399,weatherlink.com 1.10,2013-02-06 20:48:00,
2013-02-06 16:03:00,34.3,24.0,30.18,SSE,161,4.0,8.0,65,0.00,,,0.03,383,weatherlink.com 1.10,2013-02-06 21:03:00,
2013-02-06 16:18:00,34.4,24.0,30.18,South,184,7.0,10.0,66,0.00,,,0.03,318,weatherlink.com 1.10,2013-02-06 21:18:00,
2013-02-06 16:33:00,34.4,24.0,30.17,SSE,168,3.0,10.0,66,0.00,,,0.03,118,weatherlink.com 1.10,2013-02-06 21:33:00,
2013-02-06 16:48:00,34.3,24.0,30.16,SE,127,5.0,11.0,65,0.00,,,0.03,207,weatherlink.com 1.10,2013-02-06 21:48:00,
2013-02-06 17:03:00,34.2,24.0,30.15,SE,143,2.0,7.0,66,0.00,,,0.03,155,weatherlink.com 1.10,2013-02-06 22:03:00,
2013-02-06 17:18:00,34.0,24.0,30.15,South,173,3.0,9.0,66,0.00,,,0.03,104,weatherlink.com 1.10,2013-02-06 22:18:00,
2013-02-06 17:33:00,33.3,24.0,30.16,South,189,3.0,7.0,68,0.00,,,0.03,21,weatherlink.com 1.10,2013-02-06 22:33:00,
2013-02-06 17:49:00,32.9,24.0,30.16,SSE,148,3.0,6.0,70,0.00,,,0.03,19,weatherlink.com 1.10,2013-02-06 22:49:00,
2013-02-06 18:03:00,32.6,24.0,30.16,SSE,166,3.0,4.0,71,0.00,,,0.03,5,weatherlink.com 1.10,2013-02-06 23:03:00,
2013-02-06 18:19:00,32.4,24.0,30.16,SSE,164,1.0,5.0,72,0.00,,,0.03,0,weatherlink.com 1.10,2013-02-06 23:19:00,
2013-02-06 18:34:00,32.2,24.0,30.16,SE,125,0.0,4.0,73,0.00,,,0.03,0,weatherlink.com 1.10,2013-02-06 23:34:00,
2013-02-06 18:49:00,31.9,25.0,30.16,SE,126,2.0,4.0,74,0.00,,,0.03,0,weatherlink.com 1.10,2013-02-06 23:49:00,
2013-02-06 19:04:00,31.9,25.0,30.18,SE,126,0.0,1.0,75,0.00,,,0.03,0,weatherlink.com 1.10,2013-02-07 00:04:00,
2013-02-06 19:19:00,31.8,25.0,30.16,SE,125,2.0,4.0,75,0.00,,,0.03,0,weatherlink.com 1.10,2013-02-07 00:19:00,
2013-02-06 19:34:00,31.6,25.0,30.16,ESE,116,2.0,4.0,75,0.00,,,0.03,0,weatherlink.com 1.10,2013-02-07 00:34:00,
2013-02-06 19:49:00,31.5,25.0,30.16,ESE,122,0.0,4.0,76,0.00,,,0.03,0,weatherlink.com 1.10,2013-02-07 00:49:00,
2013-02-06 20:04:00,31.5,25.0,30.16,ESE,122,0.0,3.0,76,0.00,,,0.03,0,weatherlink.com 1.10,2013-02-07 01:04:00,
2013-02-06 20:19:00,31.4,25.0,30.15,ESE,122,0.0,4.0,77,0.00,,,0.03,0,weatherlink.com 1.10,2013-02-07 01:19:00,
2013-02-06 20:34:00,31.4,25.0,30.15,ESE,122,1.0,4.0,78,0.00,,,0.03,0,weatherlink.com 1.10,2013-02-07 01:34:00,
2013-02-06 20:49:00,31.3,25.0,30.15,SE,138,4.0,6.0,78,0.00,,,0.03,0,weatherlink.com 1.10,2013-02-07 01:49:00,
2013-02-06 21:04:00,31.4,25.0,30.14,ESE,113,0.0,8.0,78,0.00,,,0.03,0,weatherlink.com 1.10,2013-02-07 02:04:00,
2013-02-06 21:19:00,31.4,26.0,30.14,SSE,153,2.0,7.0,79,0.00,,,0.03,0,weatherlink.com 1.10,2013-02-07 02:19:00,
2013-02-06 21:34:00,31.3,26.0,30.14,SE,145,3.0,7.0,79,0.00,,,0.03,0,weatherlink.com 1.10,2013-02-07 02:34:00,
2013-02-06 21:49:00,31.2,25.0,30.14,SSE,153,3.0,8.0,79,0.00,,,0.03,0,weatherlink.com 1.10,2013-02-07 02:49:00,
2013-02-06 22:04:00,31.1,26.0,30.14,SE,143,1.0,7.0,80,0.00,,,0.03,0,weatherlink.com 1.10,2013-02-07 03:04:00,
2013-02-06 22:19:00,31.1,26.0,30.13,SE,137,2.0,7.0,81,0.00,,,0.03,0,weatherlink.com 1.10,2013-02-07 03:19:00,
2013-02-06 22:34:00,31.0,26.0,30.13,SE,144,3.0,8.0,81,0.00,,,0.03,0,weatherlink.com 1.10,2013-02-07 03:34:00,
2013-02-06 22:49:00,31.0,26.0,30.14,SE,142,3.0,5.0,82,0.00,,,0.03,0,weatherlink.com 1.10,2013-02-07 03:49:00,
2013-02-06 23:04:00,31.0,26.0,30.13,SE,133,5.0,7.0,82,0.00,,,0.03,0,weatherlink.com 1.10,2013-02-07 04:04:00,
2013-02-06 23:19:00,31.0,26.0,30.13,SE,128,1.0,8.0,83,0.00,,,0.03,0,weatherlink.com 1.10,2013-02-07 04:19:00,
2013-02-06 23:34:00,31.1,27.0,30.14,SSE,163,2.0,6.0,83,0.00,,,0.03,0,weatherlink.com 1.10,2013-02-07 04:34:00,
2013-02-06 23:49:00,31.3,27.0,30.13,ESE,123,5.0,9.0,83,0.00,,,0.03,0,weatherlink.com 1.10,2013-02-07 04:49:00,